,,PA_Meas_PMT16A,,PR_Meas_QMR101_102,,RH_Meas_QMH101,,SR_Meas_QMS101,,TA_Meas_QMH101,,GenWind,,GenWind,
time,status,PA,status,PR,status,RH,status,SR,status,TA,status,DirAvg,status,SpdAvg,
2012-04-10, 00:00:05,VALID,918.989,VALID,0,VALID,96.7488,VALID,0,VALID,20.7544,VALID,257,VALID,0,
2012-04-10, 00:01:05,VALID,918.929,VALID,0,VALID,96.7335,VALID,0,VALID,20.7544,VALID,256,VALID,0,
2012-04-10, 00:02:05,VALID,918.911,VALID,0,VALID,96.7335,VALID,0,VALID,20.7544,VALID,256,VALID,0,
2012-04-10, 00:03:05,VALID,918.904,VALID,0,VALID,96.7488,VALID,0,VALID,20.7755,VALID,257,VALID,0,
2012-04-10, 00:04:05,VALID,918.882,VALID,0,VALID,96.7259,VALID,0,VALID,20.7755,VALID,256,VALID,0,
2012-04-10, 00:05:05,VALID,918.901,VALID,0,VALID,96.7716,VALID,0,VALID,20.7739,VALID,257,VALID,0.278125,
2012-04-10, 00:06:05,VALID,918.874,VALID,0,VALID,96.7869,VALID,0,VALID,20.8129,VALID,256,VALID,0.214062,
2012-04-10, 00:07:05,VALID,918.896,VALID,0,VALID,96.8021,VALID,0,VALID,20.8145,VALID,257,VALID,0.109375,
2012-04-10, 00:08:05,VALID,918.906,VALID,0,VALID,96.7869,VALID,0,VALID,20.8129,VALID,256,VALID,0.217187,
2012-04-10, 00:09:05,VALID,918.926,VALID,0,VALID,96.7869,VALID,0,VALID,20.8519,VALID,256,VALID,0.153125,
2012-04-10, 00:10:05,VALID,918.938,VALID,0,VALID,96.7411,VALID,0,VALID,20.8129,VALID,257,VALID,0.319922,
2012-04-10, 00:11:05,VALID,918.931,VALID,0,VALID,96.7716,VALID,0,VALID,20.8145,VALID,257,VALID,0.0375,
2012-04-10, 00:12:05,VALID,918.919,VALID,0,VALID,96.7793,VALID,0,VALID,20.8324,VALID,257,VALID,0,
2012-04-10, 00:13:05,VALID,918.911,VALID,0,VALID,96.7335,VALID,0,VALID,20.7739,VALID,257,VALID,0.291406,
2012-04-10, 00:14:05,VALID,918.894,VALID,0,VALID,96.703,VALID,0,VALID,20.7544,VALID,256,VALID,0.426953,
2012-04-10, 00:15:05,VALID,918.879,VALID,0,VALID,96.6878,VALID,0,VALID,20.7544,VALID,257,VALID,0.345313,
2012-04-10, 00:16:05,VALID,918.855,VALID,0,VALID,96.6954,VALID,0,VALID,20.7544,VALID,257,VALID,0.522656,
2012-04-10, 00:17:05,VALID,918.851,VALID,0,VALID,96.7259,VALID,0,VALID,20.7544,VALID,257,VALID,0.315625,
2012-04-10, 00:18:05,VALID,918.883,VALID,0,VALID,96.7869,VALID,0,VALID,20.7739,VALID,256,VALID,0.275,
2012-04-10, 00:19:05,VALID,918.863,VALID,0,VALID,96.8098,VALID,0,VALID,20.7739,VALID,256,VALID,0.00351562,
2012-04-10, 00:20:05,VALID,918.865,VALID,0,VALID,96.825,VALID,0,VALID,20.8145,VALID,257,VALID,0,
2012-04-10, 00:21:05,VALID,918.821,VALID,0,VALID,96.8098,VALID,0,VALID,20.834,VALID,257,VALID,0,
2012-04-10, 00:22:05,VALID,918.787,VALID,0,VALID,96.8326,VALID,0,VALID,20.8324,VALID,257,VALID,0.306641,
2012-04-10, 00:23:05,VALID,918.813,VALID,0,VALID,96.8631,VALID,0,VALID,20.8519,VALID,257,VALID,0.0335938,
2012-04-10, 00:24:05,VALID,918.786,VALID,0,VALID,96.8555,VALID,0.107441,VALID,20.8699,VALID,257,VALID,0.161719,
2012-04-10, 00:25:05,VALID,918.77,VALID,0,VALID,96.9165,VALID,0,VALID,20.8894,VALID,257,VALID,0.230469,
2012-04-10, 00:26:05,VALID,918.736,VALID,0,VALID,96.8631,VALID,0,VALID,20.8894,VALID,257,VALID,0.175,
2012-04-10, 00:27:05,VALID,918.79,VALID,0,VALID,96.8098,VALID,0,VALID,20.891,VALID,257,VALID,0.264844,
2012-04-10, 00:28:05,VALID,918.745,VALID,0,VALID,96.8631,VALID,0,VALID,20.9105,VALID,257,VALID,0.262891,
2012-04-10, 00:29:05,VALID,918.767,VALID,0,VALID,96.886,VALID,0,VALID,20.9284,VALID,256,VALID,0.233984,
2012-04-10, 00:30:05,VALID,918.759,VALID,0,VALID,96.8784,VALID,0,VALID,20.9479,VALID,257,VALID,0.278516,
2012-04-10, 00:31:05,VALID,918.758,VALID,0,VALID,96.9012,VALID,0,VALID,20.9479,VALID,257,VALID,0.360938,
2012-04-10, 00:32:05,VALID,918.762,VALID,0,VALID,96.9165,VALID,0,VALID,20.9674,VALID,257,VALID,0.391797,
2012-04-10, 00:33:05,VALID,918.783,VALID,0,VALID,96.9089,VALID,0.107441,VALID,20.9674,VALID,257,VALID,0.417969,
2012-04-10, 00:34:05,VALID,918.783,VALID,0,VALID,96.9165,VALID,0,VALID,21.0275,VALID,257,VALID,0.308203,
2012-04-10, 00:35:05,VALID,918.781,VALID,0,VALID,96.9089,VALID,0,VALID,20.9869,VALID,257,VALID,0.309766,
2012-04-10, 00:36:05,VALID,918.782,VALID,0,VALID,96.947,VALID,0.107441,VALID,21.0259,VALID,257,VALID,0.0582031,
2012-04-10, 00:37:05,VALID,918.812,VALID,0,VALID,96.9394,VALID,0.107441,VALID,21.0259,VALID,257,VALID,0,
2012-04-10, 00:38:05,VALID,918.802,VALID,0,VALID,96.9165,VALID,0,VALID,21.0454,VALID,257,VALID,0,
2012-04-10, 00:39:05,VALID,918.774,VALID,0,VALID,96.9089,VALID,0,VALID,21.008,VALID,257,VALID,0,
2012-04-10, 00:40:05,VALID,918.813,VALID,0,VALID,96.9089,VALID,0,VALID,20.9869,VALID,257,VALID,0,
2012-04-10, 00:41:05,VALID,918.778,VALID,0,VALID,96.8631,VALID,0,VALID,20.9869,VALID,256,VALID,0,
2012-04-10, 00:42:05,VALID,918.739,VALID,0,VALID,96.825,VALID,0,VALID,20.9479,VALID,257,VALID,0,
2012-04-10, 00:43:05,VALID,918.734,VALID,0,VALID,96.8784,VALID,0,VALID,20.9479,VALID,257,VALID,0,
2012-04-10, 00:44:05,VALID,918.68,VALID,0,VALID,96.9622,VALID,0,VALID,20.9674,VALID,256,VALID,0,
2012-04-10, 00:45:05,VALID,918.668,VALID,0,VALID,96.8707,VALID,0,VALID,20.9674,VALID,257,VALID,0,
2012-04-10, 00:46:05,VALID,918.59,VALID,0,VALID,96.8631,VALID,0,VALID,20.969,VALID,257,VALID,0,
2012-04-10, 00:47:05,VALID,918.596,VALID,0,VALID,96.8631,VALID,0,VALID,20.9479,VALID,256,VALID,0.197656,
2012-04-10, 00:48:05,VALID,918.585,VALID,0,VALID,96.8479,VALID,0.107441,VALID,20.9284,VALID,257,VALID,0,
2012-04-10, 00:49:05,VALID,918.574,VALID,0,VALID,96.886,VALID,0,VALID,20.9284,VALID,257,VALID,0,
2012-04-10, 00:50:05,VALID,918.518,VALID,0,VALID,96.8707,VALID,0.107441,VALID,20.8894,VALID,257,VALID,0,
2012-04-10, 00:51:05,VALID,918.518,VALID,0,VALID,96.8479,VALID,0,VALID,20.93,VALID,256,VALID,0.254687,
2012-04-10, 00:52:05,VALID,918.513,VALID,0,VALID,96.8098,VALID,0,VALID,20.8699,VALID,257,VALID,0.294141,
2012-04-10, 00:53:05,VALID,918.482,VALID,0,VALID,96.8403,VALID,0,VALID,20.8504,VALID,257,VALID,0.107813,
2012-04-10, 00:54:05,VALID,918.478,VALID,0,VALID,96.886,VALID,0,VALID,20.8293,VALID,256,VALID,0,
2012-04-10, 00:55:05,VALID,918.459,VALID,0,VALID,96.8555,VALID,0,VALID,20.8699,VALID,257,VALID,0,
2012-04-10, 00:56:05,VALID,918.465,VALID,0,VALID,96.8707,VALID,0.107441,VALID,20.8504,VALID,257,VALID,0,
2012-04-10, 00:57:05,VALID,918.437,VALID,0,VALID,96.8403,VALID,0,VALID,20.8504,VALID,256,VALID,0,
2012-04-10, 00:58:05,VALID,918.421,VALID,0,VALID,96.8555,VALID,0,VALID,20.8504,VALID,257,VALID,0,
2012-04-10, 00:59:05,VALID,918.401,VALID,0,VALID,96.8555,VALID,0,VALID,20.8714,VALID,256,VALID,0,
2012-04-10, 01:00:05,VALID,918.354,VALID,0,VALID,96.8555,VALID,0,VALID,20.8699,VALID,257,VALID,0.0539063,
2012-04-10, 01:01:05,VALID,918.374,VALID,0,VALID,96.825,VALID,0.107441,VALID,20.7887,VALID,256,VALID,0.160547,
2012-04-10, 01:02:05,VALID,918.325,VALID,0,VALID,96.8021,VALID,0,VALID,20.8309,VALID,257,VALID,0,
2012-04-10, 01:03:05,VALID,918.327,VALID,0,VALID,96.825,VALID,0.107441,VALID,20.8113,VALID,257,VALID,0,
2012-04-10, 01:04:05,VALID,918.326,VALID,0,VALID,96.8098,VALID,0,VALID,20.8113,VALID,257,VALID,0,
2012-04-10, 01:05:05,VALID,918.299,VALID,0,VALID,96.8021,VALID,0,VALID,20.7918,VALID,257,VALID,0,
2012-04-10, 01:06:05,VALID,918.321,VALID,0,VALID,96.8098,VALID,0.107441,VALID,20.8535,VALID,257,VALID,0,
2012-04-10, 01:07:05,VALID,918.287,VALID,0,VALID,96.8326,VALID,0,VALID,20.8519,VALID,257,VALID,0,
2012-04-10, 01:08:05,VALID,918.294,VALID,0,VALID,96.8403,VALID,0,VALID,20.8519,VALID,257,VALID,0,
2012-04-10, 01:09:05,VALID,918.302,VALID,0,VALID,96.886,VALID,0,VALID,20.891,VALID,256,VALID,0,
2012-04-10, 01:10:05,VALID,918.317,VALID,0,VALID,96.8784,VALID,0,VALID,20.8699,VALID,257,VALID,0,
2012-04-10, 01:11:05,VALID,918.308,VALID,0,VALID,96.8403,VALID,0,VALID,20.912,VALID,257,VALID,0,
2012-04-10, 01:12:05,VALID,918.319,VALID,0,VALID,96.8707,VALID,0,VALID,20.8699,VALID,257,VALID,0,
2012-04-10, 01:13:05,VALID,918.304,VALID,0,VALID,96.9165,VALID,0,VALID,20.8699,VALID,257,VALID,0.424219,
2012-04-10, 01:14:05,VALID,918.288,VALID,0,VALID,96.825,VALID,0,VALID,20.8894,VALID,257,VALID,0.201562,
2012-04-10, 01:15:05,VALID,918.28,VALID,0,VALID,96.8174,VALID,0,VALID,20.8699,VALID,257,VALID,0,
2012-04-10, 01:16:05,VALID,918.246,VALID,0,VALID,96.8555,VALID,0.107441,VALID,20.8699,VALID,257,VALID,0,
2012-04-10, 01:17:05,VALID,918.21,VALID,0,VALID,96.825,VALID,0,VALID,20.8699,VALID,256,VALID,0.0511719,
2012-04-10, 01:18:05,VALID,918.197,VALID,0,VALID,96.8707,VALID,0,VALID,20.8504,VALID,256,VALID,0.412109,
2012-04-10, 01:19:05,VALID,918.172,VALID,0,VALID,96.8936,VALID,0.107441,VALID,20.8699,VALID,257,VALID,0.303906,
2012-04-10, 01:20:05,VALID,918.2,VALID,0,VALID,96.8707,VALID,0.107441,VALID,20.8894,VALID,256,VALID,0.00195313,
2012-04-10, 01:21:05,VALID,918.171,VALID,0,VALID,96.8936,VALID,0.107441,VALID,20.8894,VALID,257,VALID,0,
2012-04-10, 01:22:05,VALID,918.171,VALID,0,VALID,96.8555,VALID,0,VALID,20.8699,VALID,257,VALID,0,
2012-04-10, 01:23:05,VALID,918.155,VALID,0,VALID,96.8555,VALID,0,VALID,20.8699,VALID,257,VALID,0,
2012-04-10, 01:24:05,VALID,918.149,VALID,0,VALID,96.8707,VALID,0.107441,VALID,20.8894,VALID,256,VALID,0,
2012-04-10, 01:25:05,VALID,918.143,VALID,0,VALID,96.8555,VALID,0.107441,VALID,20.8683,VALID,257,VALID,0.170312,
2012-04-10, 01:26:05,VALID,918.127,VALID,0,VALID,96.7945,VALID,0,VALID,20.8714,VALID,256,VALID,0.157422,
2012-04-10, 01:27:05,VALID,918.129,VALID,0,VALID,96.8174,VALID,0,VALID,20.8098,VALID,257,VALID,0.6375,
2012-04-10, 01:28:05,VALID,918.135,VALID,0,VALID,96.9012,VALID,0,VALID,20.8504,VALID,257,VALID,0.316797,
2012-04-10, 01:29:05,VALID,918.115,VALID,0,VALID,96.8936,VALID,0.107441,VALID,20.8699,VALID,256,VALID,0.108984,
2012-04-10, 01:30:05,VALID,918.083,VALID,0,VALID,96.9698,VALID,0.107441,VALID,20.8878,VALID,257,VALID,0,
2012-04-10, 01:31:05,VALID,918.1,VALID,0,VALID,96.8631,VALID,0,VALID,20.8894,VALID,256,VALID,0.160938,
2012-04-10, 01:32:05,VALID,918.101,VALID,0,VALID,96.8403,VALID,0,VALID,20.912,VALID,257,VALID,0,
2012-04-10, 01:33:05,VALID,918.085,VALID,0,VALID,96.8707,VALID,0.107441,VALID,20.8699,VALID,256,VALID,0,
2012-04-10, 01:34:05,VALID,918.103,VALID,0,VALID,96.8021,VALID,0,VALID,20.8519,VALID,257,VALID,0.354688,
2012-04-10, 01:35:05,VALID,918.048,VALID,0,VALID,96.7945,VALID,0,VALID,20.8309,VALID,257,VALID,0.374219,
2012-04-10, 01:36:05,VALID,918.025,VALID,0,VALID,96.7945,VALID,0.107441,VALID,20.8324,VALID,257,VALID,0.0121094,
2012-04-10, 01:37:05,VALID,918.034,VALID,0,VALID,96.8174,VALID,0,VALID,20.8519,VALID,256,VALID,0,
2012-04-10, 01:38:05,VALID,918.032,VALID,0,VALID,96.8174,VALID,0,VALID,20.8113,VALID,257,VALID,0,
2012-04-10, 01:39:05,VALID,917.989,VALID,0,VALID,96.8326,VALID,0,VALID,20.8309,VALID,257,VALID,0.0195313,
2012-04-10, 01:40:05,VALID,917.983,VALID,0,VALID,96.8326,VALID,0,VALID,20.8309,VALID,257,VALID,0,
2012-04-10, 01:41:05,VALID,917.974,VALID,0,VALID,96.8555,VALID,0,VALID,20.8309,VALID,257,VALID,0,
2012-04-10, 01:42:05,VALID,917.981,VALID,0,VALID,96.8555,VALID,0.107441,VALID,20.8504,VALID,257,VALID,0,
2012-04-10, 01:43:05,VALID,917.958,VALID,0,VALID,96.8479,VALID,0,VALID,20.8504,VALID,257,VALID,0,
2012-04-10, 01:44:05,VALID,917.933,VALID,0,VALID,96.8555,VALID,0,VALID,20.8504,VALID,257,VALID,0,
2012-04-10, 01:45:05,VALID,917.911,VALID,0,VALID,96.8555,VALID,0,VALID,20.8309,VALID,257,VALID,0,
2012-04-10, 01:46:05,VALID,917.915,VALID,0,VALID,96.8403,VALID,0,VALID,20.8488,VALID,257,VALID,0,
2012-04-10, 01:47:05,VALID,917.872,VALID,0,VALID,96.8479,VALID,0.107441,VALID,20.8504,VALID,257,VALID,0,
2012-04-10, 01:48:05,VALID,917.854,VALID,0,VALID,96.8403,VALID,0.107441,VALID,20.8504,VALID,256,VALID,0,
2012-04-10, 01:49:05,VALID,917.844,VALID,0,VALID,96.886,VALID,0,VALID,20.8699,VALID,256,VALID,0,
2012-04-10, 01:50:05,VALID,917.834,VALID,0,VALID,96.8936,VALID,0,VALID,20.891,VALID,256,VALID,0,
2012-04-10, 01:51:05,VALID,917.827,VALID,0,VALID,96.8784,VALID,0,VALID,20.8894,VALID,256,VALID,0,
2012-04-10, 01:52:05,VALID,917.842,VALID,0,VALID,96.9165,VALID,0,VALID,20.8894,VALID,256,VALID,0,
2012-04-10, 01:53:05,VALID,917.809,VALID,0,VALID,96.9394,VALID,0,VALID,20.8894,VALID,257,VALID,0,
2012-04-10, 01:54:05,VALID,917.808,VALID,0,VALID,96.947,VALID,0,VALID,20.9105,VALID,257,VALID,0,
2012-04-10, 01:55:05,VALID,917.791,VALID,0,VALID,96.8936,VALID,0,VALID,20.9105,VALID,256,VALID,0,
2012-04-10, 01:56:05,VALID,917.799,VALID,0,VALID,96.9241,VALID,0,VALID,20.9105,VALID,256,VALID,0,
2012-04-10, 01:57:05,VALID,917.776,VALID,0,VALID,96.8707,VALID,0,VALID,20.912,VALID,256,VALID,0.180078,
2012-04-10, 01:58:05,VALID,917.747,VALID,0,VALID,96.8174,VALID,0,VALID,20.8324,VALID,257,VALID,0.0125,
2012-04-10, 01:59:05,VALID,917.728,VALID,0,VALID,96.825,VALID,0,VALID,20.8129,VALID,257,VALID,0.448438,
2012-04-10, 02:00:05,VALID,917.723,VALID,0,VALID,96.8479,VALID,0,VALID,20.8129,VALID,256,VALID,0.171094,
2012-04-10, 02:01:05,VALID,917.724,VALID,0,VALID,96.8479,VALID,0,VALID,20.7934,VALID,257,VALID,0.260938,
2012-04-10, 02:02:05,VALID,917.699,VALID,0,VALID,96.8479,VALID,0,VALID,20.7934,VALID,257,VALID,0.169531,
2012-04-10, 02:03:05,VALID,917.708,VALID,0,VALID,96.8403,VALID,0,VALID,20.7934,VALID,257,VALID,0.40625,
2012-04-10, 02:04:05,VALID,917.733,VALID,0,VALID,96.8174,VALID,0,VALID,20.7544,VALID,257,VALID,0.222266,
2012-04-10, 02:05:05,VALID,917.678,VALID,0,VALID,96.8631,VALID,0,VALID,20.7349,VALID,257,VALID,0.34375,
2012-04-10, 02:06:05,VALID,917.643,VALID,0,VALID,96.886,VALID,0,VALID,20.7544,VALID,256,VALID,0.170703,
2012-04-10, 02:07:05,VALID,917.626,VALID,0,VALID,96.9089,VALID,0,VALID,20.7544,VALID,256,VALID,0.307813,
2012-04-10, 02:08:05,VALID,917.643,VALID,0,VALID,96.9089,VALID,0,VALID,20.7544,VALID,256,VALID,0,
2012-04-10, 02:09:05,VALID,917.603,VALID,0,VALID,96.9089,VALID,0,VALID,20.7739,VALID,256,VALID,0.046875,
2012-04-10, 02:10:05,VALID,917.586,VALID,0,VALID,96.947,VALID,0,VALID,20.7723,VALID,256,VALID,0.00429688,
2012-04-10, 02:11:05,VALID,917.579,VALID,0,VALID,96.8784,VALID,0,VALID,20.7528,VALID,256,VALID,0.379687,
2012-04-10, 02:12:05,VALID,917.614,VALID,0,VALID,96.9012,VALID,0,VALID,20.7138,VALID,256,VALID,0.00195313,
2012-04-10, 02:13:05,VALID,917.598,VALID,0,VALID,96.9241,VALID,0,VALID,20.7138,VALID,256,VALID,0.0121094,
2012-04-10, 02:14:05,VALID,917.603,VALID,0,VALID,96.9241,VALID,0,VALID,20.7138,VALID,257,VALID,0,
2012-04-10, 02:15:05,VALID,917.591,VALID,0,VALID,96.9165,VALID,0,VALID,20.7333,VALID,256,VALID,0.435156,
2012-04-10, 02:16:05,VALID,917.573,VALID,0,VALID,96.9089,VALID,0,VALID,20.7333,VALID,252,VALID,0.707031,
2012-04-10, 02:17:05,VALID,917.557,VALID,0,VALID,96.9089,VALID,0.107441,VALID,20.7138,VALID,228,VALID,0.455859,
2012-04-10, 02:18:05,VALID,917.558,VALID,0,VALID,96.9241,VALID,0,VALID,20.7138,VALID,228,VALID,0.34375,
2012-04-10, 02:19:05,VALID,917.546,VALID,0,VALID,96.9241,VALID,0,VALID,20.6748,VALID,229,VALID,0.165234,
2012-04-10, 02:20:05,VALID,917.542,VALID,0,VALID,96.9622,VALID,0,VALID,20.6943,VALID,229,VALID,0.577734,
2012-04-10, 02:21:05,VALID,917.555,VALID,0,VALID,96.9012,VALID,0.107441,VALID,20.6553,VALID,247,VALID,0.808203,
2012-04-10, 02:22:05,VALID,917.54,VALID,0,VALID,96.947,VALID,0,VALID,20.6553,VALID,246,VALID,0.691406,
2012-04-10, 02:23:05,VALID,917.549,VALID,0,VALID,96.947,VALID,0,VALID,20.6358,VALID,246,VALID,0.440234,
2012-04-10, 02:24:05,VALID,917.523,VALID,0,VALID,96.9851,VALID,0,VALID,20.6585,VALID,246,VALID,0.622266,
2012-04-10, 02:25:05,VALID,917.535,VALID,0,VALID,96.9622,VALID,0,VALID,20.5984,VALID,246,VALID,0.630859,
2012-04-10, 02:26:05,VALID,917.556,VALID,0,VALID,96.9394,VALID,0,VALID,20.5789,VALID,246,VALID,1.15273,
2012-04-10, 02:27:05,VALID,917.558,VALID,0,VALID,96.9775,VALID,0,VALID,20.5789,VALID,246,VALID,0.810156,
2012-04-10, 02:28:05,VALID,917.543,VALID,0,VALID,96.9698,VALID,0,VALID,20.5789,VALID,246,VALID,0.642578,
2012-04-10, 02:29:05,VALID,917.545,VALID,0,VALID,96.9851,VALID,0,VALID,20.5999,VALID,246,VALID,0.433203,
2012-04-10, 02:30:05,VALID,917.542,VALID,0,VALID,97.0156,VALID,0,VALID,20.6179,VALID,246,VALID,0.26875,
2012-04-10, 02:31:05,VALID,917.529,VALID,0,VALID,97.0003,VALID,0,VALID,20.639,VALID,246,VALID,0.296484,
2012-04-10, 02:32:05,VALID,917.524,VALID,0,VALID,97.0308,VALID,0,VALID,20.6179,VALID,246,VALID,0.00820312,
2012-04-10, 02:33:05,VALID,917.523,VALID,0,VALID,97.0613,VALID,0,VALID,20.6179,VALID,246,VALID,0.00585938,
2012-04-10, 02:34:05,VALID,917.505,VALID,0,VALID,97.0461,VALID,0,VALID,20.639,VALID,246,VALID,0.510156,
2012-04-10, 02:35:05,VALID,917.501,VALID,0,VALID,96.9851,VALID,0,VALID,20.5984,VALID,246,VALID,0.519141,
2012-04-10, 02:36:05,VALID,917.507,VALID,0,VALID,97.0461,VALID,0,VALID,20.6374,VALID,246,VALID,0.787891,
2012-04-10, 02:37:05,VALID,917.495,VALID,0,VALID,97.0461,VALID,0,VALID,20.6764,VALID,246,VALID,0.625781,
2012-04-10, 02:38:05,VALID,917.49,VALID,0,VALID,97.0537,VALID,0,VALID,20.6569,VALID,246,VALID,0.715625,
2012-04-10, 02:39:05,VALID,917.508,VALID,0,VALID,97.0537,VALID,0.107441,VALID,20.6943,VALID,246,VALID,0.713672,
2012-04-10, 02:40:05,VALID,917.466,VALID,0,VALID,97.0613,VALID,0.107441,VALID,20.6943,VALID,246,VALID,0.430469,
2012-04-10, 02:41:04,VALID,917.461,VALID,0,VALID,97.0537,VALID,0,VALID,20.6748,VALID,246,VALID,0.653125,
2012-04-10, 02:42:04,VALID,917.476,VALID,0,VALID,97.0537,VALID,0.107441,VALID,20.6943,VALID,246,VALID,0,
2012-04-10, 02:43:04,VALID,917.466,VALID,0,VALID,97.0613,VALID,0.107441,VALID,20.7138,VALID,246,VALID,0,
2012-04-10, 02:44:04,VALID,917.458,VALID,0,VALID,97.0537,VALID,0.107441,VALID,20.6943,VALID,246,VALID,0,
2012-04-10, 02:45:04,VALID,917.46,VALID,0,VALID,97.0537,VALID,0.107441,VALID,20.7138,VALID,246,VALID,0,
2012-04-10, 02:46:04,VALID,917.444,VALID,0,VALID,97.0461,VALID,0.107441,VALID,20.6943,VALID,246,VALID,0,
2012-04-10, 02:47:04,VALID,917.458,VALID,0,VALID,97.0308,VALID,0.107441,VALID,20.6748,VALID,246,VALID,0,
2012-04-10, 02:48:04,VALID,917.422,VALID,0,VALID,97.0385,VALID,0,VALID,20.6748,VALID,246,VALID,0,
2012-04-10, 02:49:04,VALID,917.429,VALID,0,VALID,97.0537,VALID,0.107441,VALID,20.6748,VALID,246,VALID,0,
2012-04-10, 02:50:04,VALID,917.413,VALID,0,VALID,97.0385,VALID,0.107441,VALID,20.6748,VALID,246,VALID,0,
2012-04-10, 02:51:04,VALID,917.395,VALID,0,VALID,97.0613,VALID,0,VALID,20.6943,VALID,246,VALID,0,
2012-04-10, 02:52:04,VALID,917.4,VALID,0,VALID,97.0613,VALID,0,VALID,20.6943,VALID,247,VALID,0,
2012-04-10, 02:53:04,VALID,917.372,VALID,0,VALID,97.0385,VALID,0,VALID,20.6553,VALID,247,VALID,0.757422,
2012-04-10, 02:54:04,VALID,917.357,VALID,0,VALID,97.0461,VALID,0,VALID,20.6764,VALID,246,VALID,0.602344,
2012-04-10, 02:55:04,VALID,917.339,VALID,0,VALID,96.9927,VALID,0,VALID,20.6569,VALID,246,VALID,0.830859,
2012-04-10, 02:56:04,VALID,917.338,VALID,0,VALID,96.9927,VALID,0,VALID,20.6179,VALID,246,VALID,0.549609,
2012-04-10, 02:57:04,VALID,917.319,VALID,0,VALID,96.9851,VALID,0,VALID,20.5968,VALID,246,VALID,0.535937,
2012-04-10, 02:58:04,VALID,917.325,VALID,0,VALID,96.9698,VALID,0,VALID,20.5789,VALID,246,VALID,0.457812,
2012-04-10, 02:59:04,VALID,917.306,VALID,0,VALID,97.0537,VALID,0,VALID,20.6179,VALID,246,VALID,0.675781,
2012-04-10, 03:00:04,VALID,917.287,VALID,0,VALID,96.9927,VALID,0,VALID,20.5594,VALID,329,VALID,1.08555,
2012-04-10, 03:01:04,VALID,917.302,VALID,0,VALID,97.008,VALID,0,VALID,20.5594,VALID,329,VALID,0.774609,
2012-04-10, 03:02:04,VALID,917.282,VALID,0,VALID,97.0385,VALID,0,VALID,20.5594,VALID,329,VALID,0.682031,
2012-04-10, 03:03:04,VALID,917.302,VALID,0,VALID,97.0613,VALID,0,VALID,20.5789,VALID,330,VALID,0.449609,
2012-04-10, 03:04:04,VALID,917.305,VALID,0,VALID,97.0613,VALID,0,VALID,20.5984,VALID,330,VALID,0.624609,
2012-04-10, 03:05:04,VALID,917.29,VALID,0,VALID,97.0308,VALID,0,VALID,20.5789,VALID,347,VALID,0.714453,
2012-04-10, 03:06:04,VALID,917.306,VALID,0,VALID,97.0613,VALID,0,VALID,20.5789,VALID,347,VALID,0.709375,
2012-04-10, 03:07:04,VALID,917.291,VALID,0,VALID,97.069,VALID,0,VALID,20.5789,VALID,347,VALID,0.844531,
2012-04-10, 03:08:04,VALID,917.318,VALID,0,VALID,97.0461,VALID,0,VALID,20.6179,VALID,347,VALID,0.565234,
2012-04-10, 03:09:04,VALID,917.338,VALID,0,VALID,97.0918,VALID,0,VALID,20.6374,VALID,347,VALID,0.466016,
2012-04-10, 03:10:04,VALID,917.335,VALID,0,VALID,97.1071,VALID,0,VALID,20.6569,VALID,347,VALID,0.274219,
2012-04-10, 03:11:04,VALID,917.32,VALID,0,VALID,97.1147,VALID,0,VALID,20.6585,VALID,347,VALID,0.933203,
2012-04-10, 03:12:04,VALID,917.316,VALID,0,VALID,97.0842,VALID,0,VALID,20.6374,VALID,347,VALID,1.01094,
2012-04-10, 03:13:04,VALID,917.33,VALID,0,VALID,97.0994,VALID,0,VALID,20.6975,VALID,347,VALID,0.983203,
2012-04-10, 03:14:04,VALID,917.303,VALID,0,VALID,97.0994,VALID,0,VALID,20.6569,VALID,347,VALID,0.873047,
2012-04-10, 03:15:04,VALID,917.297,VALID,0,VALID,97.1071,VALID,0,VALID,20.6569,VALID,347,VALID,0.131641,
2012-04-10, 03:16:04,VALID,917.312,VALID,0,VALID,97.1071,VALID,0,VALID,20.6569,VALID,347,VALID,0.542188,
2012-04-10, 03:17:04,VALID,917.318,VALID,0,VALID,97.0766,VALID,0,VALID,20.6374,VALID,347,VALID,0.525391,
2012-04-10, 03:18:04,VALID,917.312,VALID,0,VALID,97.0537,VALID,0,VALID,20.6569,VALID,347,VALID,0.776172,
2012-04-10, 03:19:04,VALID,917.326,VALID,0,VALID,97.0918,VALID,0,VALID,20.678,VALID,347,VALID,0.144141,
2012-04-10, 03:20:04,VALID,917.344,VALID,0,VALID,97.0766,VALID,0,VALID,20.6585,VALID,347,VALID,0.417969,
2012-04-10, 03:21:04,VALID,917.32,VALID,0,VALID,97.0766,VALID,0,VALID,20.6179,VALID,347,VALID,0.576172,
2012-04-10, 03:22:04,VALID,917.356,VALID,0,VALID,97.0766,VALID,0,VALID,20.6374,VALID,347,VALID,0.470703,
2012-04-10, 03:23:04,VALID,917.334,VALID,0,VALID,97.069,VALID,0,VALID,20.6374,VALID,347,VALID,0.892969,
2012-04-10, 03:24:04,VALID,917.293,VALID,0,VALID,97.0461,VALID,0,VALID,20.6179,VALID,347,VALID,0.661719,
2012-04-10, 03:25:04,VALID,917.32,VALID,0,VALID,97.0461,VALID,0,VALID,20.6179,VALID,347,VALID,0.750391,
2012-04-10, 03:26:04,VALID,917.326,VALID,0,VALID,97.0537,VALID,0,VALID,20.6179,VALID,347,VALID,0.459766,
2012-04-10, 03:27:04,VALID,917.34,VALID,0,VALID,97.0766,VALID,0,VALID,20.6179,VALID,347,VALID,0.652734,
2012-04-10, 03:28:04,VALID,917.309,VALID,0,VALID,97.069,VALID,0,VALID,20.6179,VALID,347,VALID,0.589063,
2012-04-10, 03:29:04,VALID,917.328,VALID,0,VALID,97.0766,VALID,0,VALID,20.6179,VALID,347,VALID,0.123438,
2012-04-10, 03:30:04,VALID,917.343,VALID,0,VALID,97.0385,VALID,0,VALID,20.6585,VALID,347,VALID,0.343359,
2012-04-10, 03:31:04,VALID,917.362,VALID,0,VALID,97.0613,VALID,0,VALID,20.6179,VALID,347,VALID,0.513281,
2012-04-10, 03:32:04,VALID,917.354,VALID,0,VALID,97.0461,VALID,0,VALID,20.6569,VALID,347,VALID,0.434766,
2012-04-10, 03:33:04,VALID,917.32,VALID,0,VALID,97.0613,VALID,0,VALID,20.6569,VALID,347,VALID,0.00234375,
2012-04-10, 03:34:04,VALID,917.356,VALID,0,VALID,97.008,VALID,0,VALID,20.6374,VALID,347,VALID,0.578125,
2012-04-10, 03:35:04,VALID,917.38,VALID,0,VALID,96.9927,VALID,0,VALID,20.6374,VALID,347,VALID,0.0761719,
2012-04-10, 03:36:04,VALID,917.373,VALID,0,VALID,97.0537,VALID,0,VALID,20.6179,VALID,347,VALID,0,
2012-04-10, 03:37:04,VALID,917.381,VALID,0,VALID,97.0385,VALID,0,VALID,20.6585,VALID,347,VALID,0,
2012-04-10, 03:38:04,VALID,917.415,VALID,0,VALID,97.0232,VALID,0,VALID,20.6569,VALID,347,VALID,0,
2012-04-10, 03:39:04,VALID,917.422,VALID,0,VALID,97.0156,VALID,0,VALID,20.6374,VALID,347,VALID,0.0574219,
2012-04-10, 03:40:04,VALID,917.455,VALID,0,VALID,97.0232,VALID,0,VALID,20.5968,VALID,347,VALID,0.203906,
2012-04-10, 03:41:04,VALID,917.491,VALID,0,VALID,96.9851,VALID,0,VALID,20.6374,VALID,347,VALID,0.219922,
2012-04-10, 03:42:04,VALID,917.481,VALID,0,VALID,97.0385,VALID,0,VALID,20.6163,VALID,347,VALID,0.180859,
2012-04-10, 03:43:04,VALID,917.506,VALID,0,VALID,97.0308,VALID,0,VALID,20.6163,VALID,347,VALID,0.179297,
2012-04-10, 03:44:04,VALID,917.501,VALID,0,VALID,97.0156,VALID,0,VALID,20.6163,VALID,347,VALID,0,
2012-04-10, 03:45:04,VALID,917.522,VALID,0,VALID,97.008,VALID,0,VALID,20.6163,VALID,347,VALID,0,
2012-04-10, 03:46:04,VALID,917.546,VALID,0,VALID,97.0461,VALID,0,VALID,20.5968,VALID,347,VALID,0,
2012-04-10, 03:47:04,VALID,917.515,VALID,0,VALID,97.0003,VALID,0,VALID,20.6179,VALID,347,VALID,0,